Home > Weather > Lanchow > Past weeks

Flag for China Weather for the Past 2 Weeks in Lanchow, Gansu, China

Now
5 °F

Clear.


Feels Like: 5 °F
Forecast: -3 / 26 °F
Wind: 1 mph from North

Location: Lanzhou / Zhongchuan

Current Time: Feb 14, 2016 at 8:03:12 AM

Latest Report: Feb 14, 2016 at 7:00 AM


Visibility: 10 mi

Pressure: 30.33 "Hg (24.77 "Hg at 1531m altitude)

Humidity: 85%

Dew point: 1 °F

Location of LanchowLocation

Historic Weather in Lanchow — Graph

°F

Lanchow Temperature Yesterday

Maximum temperature yesterday: 19 °F (at 3:00 PM)
Minimum temperature yesterday: 5 °F (at 10:00 PM)
Average temperature yesterday: 11 °F

High & Low Weather Summary for the Past Weeks

 TemperatureHumidityPressure
High48 °F (Feb 7, 4:00 PM)93% (Feb 11, 11:00 PM)30.51 "Hg (Feb 11, 11:00 PM)
Low0 °F (Feb 1, 3:00 AM)9% (Feb 8, 4:00 PM)29.65 "Hg (Feb 11, 4:00 PM)
Average19 °F53%30.18 "Hg
* Reported Jan 30 6:00 AM — Feb 14 6:00 AM, Lanchow, Weather by CustomWeather, © 2016

Note: Actual official high and low records may vary slightly from our data, if they occured in-between our weather recording intervals... More about our weather records

Advertising

Lanchow Weather History for the Previous 24 Hours

 ConditionsComfort  
Time TempWeatherWind HumidityBarometerVisibility
6:00 AM
Sun, Feb 14
5 °FClear.3 mph78%30.33 "Hg10 mi
5:00 AM5 °FClear.3 mph78%30.30 "Hg10 mi
4:00 AM3 °FClear.6 mph78%30.30 "Hg10 mi
3:00 AM1 °FClear.6 mph78%30.33 "Hg10 mi
2:00 AM0 °FClear.6 mph84%30.33 "Hg10 mi
1:00 AM3 °FClear.6 mph78%30.36 "Hg10 mi
12:00 AM3 °FClear.6 mph78%30.36 "Hg10 mi
11:00 PM
Sat, Feb 13
5 °FClear.6 mph78%30.39 "Hg10 mi
10:00 PM5 °FPassing clouds.3 mph78%30.39 "HgN/A
9:00 PM9 °FLight snow. Overcast.1 mph85%30.39 "HgN/A
8:00 PM12 °FPassing clouds.1 mph85%30.36 "HgN/A
7:00 PM14 °FScattered clouds.3 mph73%30.33 "HgN/A
6:00 PM16 °FSunny.1 mph62%30.30 "Hg10 mi
5:00 PM18 °FPassing clouds.1 mph58%30.30 "HgN/A
4:00 PM16 °FScattered clouds.1 mph62%30.27 "HgN/A
3:00 PM19 °FScattered clouds.1 mph53%30.30 "HgN/A
2:00 PM14 °FLight snow. Scattered clouds.1 mph67%30.30 "HgN/A
1:00 PM14 °FLight snow. Scattered clouds.3 mph67%30.36 "HgN/A
12:00 PM14 °FLight snow. Scattered clouds.No wind62%30.36 "Hg4 mi
11:00 AM10 °FLight snow. Scattered clouds.3 mph67%30.39 "HgN/A
10:00 AM9 °FLight snow. Scattered clouds.1 mph78%30.39 "Hg5 mi
9:00 AM9 °FLight snow. Scattered clouds.No wind78%30.36 "HgN/A
8:00 AM7 °FLight snow. Ice fog.1 mph85%30.33 "Hg3 mi
Weather by CustomWeather, © 2016

See weather overviewHow to use our weather pages